Weather History for Cincinnati, OH

Change the Weather History Date:

Friday, March 29, 2013

  Actual Average Record
Temperature  
Mean Temperature 40 °F -  
Max Temperature 57 °F 61 °F 82 °F (1998)
Min Temperature 26 °F 43 °F 21 °F (1964)
Degree Days  
Heating Degree Days 24    
Moisture  
Dew Point 28 °F    
Average Humidity 65    
Maximum Humidity 96    
Minimum Humidity 33    
Precipitation  
Precipitation 0.00 in - - ()
Sea Level Pressure  
Sea Level Pressure 30.30 in    
Wind  
Wind Speed 2 mph (WSW)    
Max Wind Speed 10 mph    
Max Gust Speed -    
Visibility 9 miles    
Events      
Averages and records for this station are not official NWS values.
T = Trace of Precipitation, MM = Missing Value Source: NWS Daily Summary

Daily Weather History Graph

Daily Weather History Graph

Search for Another Location

Airport:

Trip Planner

Search our weather history database for the weather conditions in past years. The results will help you decide how hot, cold, wet, or windy it might be!

Date:

Astronomy

Mar. 29, 2013 Rise Set
Actual Time 7:26 AM EDT 7:58 PM EDT
Civil Twilight 6:59 AM EDT 8:25 PM EDT
Nautical Twilight 6:28 AM EDT 8:57 PM EDT
Astronomical Twilight 5:55 AM EDT 9:29 PM EDT
Moon 10:56 PM EDT (3/29) 8:36 AM EDT (3/29)
Length of Visible Light 13h 25m
Length of Day
12h 32m
Waning Gibbous, 93% of the Moon is Illuminated
Mar 29
Waning Gibbous
Apr 3
Last Quarter
Apr 10
New
Apr 18
First Quarter
Apr 25
Full

Hourly Weather History & Observations

Time (EDT) Temp. Dew Point Humidity Pressure Visibility Wind Dir Wind Speed Gust Speed Precip Events Conditions
12:53 AM 32.0 °F 28.0 °F 85% 30.35 in 10.0 mi Calm Calm - N/A   Clear
1:53 AM 30.0 °F 26.1 °F 85% 30.35 in 10.0 mi Calm Calm - N/A   Clear
2:53 AM 28.9 °F 27.0 °F 92% 30.35 in 9.0 mi Calm Calm - N/A   Clear
3:53 AM 28.0 °F 26.1 °F 92% 30.34 in 8.0 mi Calm Calm - N/A   Clear
4:53 AM 28.0 °F 26.1 °F 92% 30.34 in 8.0 mi Calm Calm - N/A   Clear
5:53 AM 27.0 °F 26.1 °F 96% 30.33 in 7.0 mi Calm Calm - N/A   Clear
6:53 AM 26.1 °F 25.0 °F 96% 30.34 in 5.0 mi Calm Calm - N/A   Mostly Cloudy
7:53 AM 27.0 °F 26.1 °F 96% 30.35 in 4.0 mi Calm Calm - N/A   Scattered Clouds
8:53 AM 30.9 °F 28.9 °F 92% 30.35 in 6.0 mi Calm Calm - N/A   Mostly Cloudy
9:53 AM 37.0 °F 30.9 °F 79% 30.37 in 8.0 mi Calm Calm - N/A   Overcast
10:53 AM 44.1 °F 30.9 °F 60% 30.36 in 10.0 mi Calm Calm - N/A   Overcast
11:53 AM 48.9 °F 28.9 °F 46% 30.35 in 10.0 mi SSW 3.5 mph - N/A   Clear
12:53 PM 51.1 °F 28.0 °F 41% 30.32 in 10.0 mi SW 5.8 mph - N/A   Partly Cloudy
1:53 PM 53.1 °F 27.0 °F 37% 30.30 in 10.0 mi SW 3.5 mph - N/A   Clear
2:53 PM 54.0 °F 26.1 °F 34% 30.27 in 10.0 mi Variable 3.5 mph - N/A   Overcast
3:53 PM 55.9 °F 27.0 °F 33% 30.25 in 10.0 mi WSW 8.1 mph - N/A   Overcast
4:53 PM 55.0 °F 26.1 °F 33% 30.23 in 10.0 mi SW 10.4 mph - N/A   Overcast
5:53 PM 55.0 °F 28.0 °F 35% 30.22 in 10.0 mi WSW 9.2 mph - N/A   Overcast
6:53 PM 54.0 °F 28.0 °F 37% 30.23 in 10.0 mi West 8.1 mph - N/A   Overcast
7:53 PM 52.0 °F 28.0 °F 40% 30.23 in 10.0 mi West 5.8 mph - N/A   Mostly Cloudy
8:53 PM 48.0 °F 30.9 °F 52% 30.24 in 10.0 mi Calm Calm - N/A   Overcast
9:53 PM 44.1 °F 34.0 °F 68% 30.25 in 10.0 mi Calm Calm - N/A   Mostly Cloudy
10:53 PM 42.1 °F 32.0 °F 67% 30.26 in 10.0 mi Calm Calm - N/A   Mostly Cloudy
11:53 PM 39.0 °F 33.1 °F 79% 30.26 in 10.0 mi Calm Calm - N/A   Scattered Clouds